Home > Time Zones > World Clock > Weather > Oman > Nizwa > Past weeks

Flag for Oman Weather past 2 weeks in Nizwa, Oman

Now
91 °F

Clear.


Feels Like: 111 °F
Forecast: 78 / 111 °F
Wind: 16 mph from Northeast

Location: International Airport

Current Time: Jul 30, 2014 at 2:03:30 PM

Latest Report: Jul 30, 2014 at 12:50 PM


Visibility: 5 mi

Pressure: 29.45 "Hg

Humidity: 71%

Dew point: 81 °F

Location of NizwaLocation

Historic Weather in Nizwa — Graph

°F

Nizwa temperature yesterday

Maximum temperature yesterday: 95 °F (at 11:50 AM)
Minimum temperature yesterday: 88 °F (at 2:50 AM)
Average temperature yesterday: 90 °F

Past Weeks' High & Low Weather Summary

 TemperatureHumidityPressure
High108 °F (Jul 16, 9:50 AM)100% (Jul 22, 4:50 AM)29.65 "Hg (Jul 22, 4:50 AM)
Low84 °F (Jul 16, 2:50 AM)17% (Jul 25, 1:50 AM)29.33 "Hg (Jul 17, 1:50 AM)
Average91 °F73%29.44 "Hg
* Reported Jul 15 12:50 PM — Jul 30 12:50 PM, Nizwa, Weather by CustomWeather, © 2014

Note: Actual official high and low records may vary slightly from our data, if they occured in-between our weather recording intervals... More about our weather records

Advertising

Nizwa weather history for previous 24 hours

 ConditionsComfort  
Time TempWeatherWind HumidityBarometerVisibility
12:50 PM
Jul 30
91 °FClear.16 mph71%29.45 "Hg5 mi
11:50 AM93 °FClear.15 mph67%29.47 "Hg5 mi
10:50 AM91 °FClear.12 mph71%29.47 "Hg5 mi
9:50 AM91 °FClear.10 mph75%29.47 "Hg5 mi
8:50 AM90 °FClear.5 mph84%29.47 "Hg5 mi
7:50 AM88 °FClear.5 mph84%29.47 "Hg5 mi
6:50 AM86 °FPassing clouds.9 mph94%29.47 "Hg4 mi
5:50 AM88 °FPartly sunny.2 mph94%29.45 "Hg4 mi
4:50 AM88 °FClear.1 mph89%29.45 "Hg4 mi
3:50 AM88 °FClear.2 mph89%29.42 "Hg4 mi
2:50 AM88 °FClear.5 mph84%29.42 "Hg4 mi
1:50 AM90 °FClear.5 mph75%29.39 "Hg4 mi
12:50 AM90 °FClear.2 mph79%29.39 "Hg4 mi
11:50 PM
Jul 29
91 °FClear.3 mph75%29.39 "Hg4 mi
10:50 PM91 °FClear.2 mph75%29.39 "Hg4 mi
9:50 PM90 °FClear.2 mph79%29.42 "Hg4 mi
8:50 PM88 °FClear.2 mph84%29.39 "Hg4 mi
7:50 PM90 °FClear.6 mph79%29.39 "Hg4 mi
6:50 PM90 °FClear.7 mph79%29.39 "Hg4 mi
5:50 PM91 °FClear.9 mph75%29.36 "Hg5 mi
4:50 PM91 °FClear.9 mph75%29.36 "Hg5 mi
3:50 PM91 °FClear.12 mph75%29.36 "Hg5 mi
2:50 PM93 °FClear.10 mph71%29.39 "Hg5 mi
Weather by CustomWeather, © 2014

See weather overviewHow to use our weather pages